Location: Kalberh�ni
(46.4610°N, 7.2453°E)
Time: 05:16:22
(UTC+00:00)

Cosmos 1802 Rocket - Pass Details

Date: 30 October 2021
Orbit: 955 x 1010 km, 82.9° (Epoch: 05 December)

Event Time Altitude Azimuth Distance (km) Brightness Sun altitude
Rises 19:28:59 0° 213° (SSW) 3,621 7.2 -33.1°
Reaches altitude 10° 19:31:40 10° 221° (SW) 2,680 6.5 -33.5°
Maximum altitude 19:37:17 37° 288° (WNW) 1,452 5.3 -34.4°
Drops below altitude 10° 19:42:59 10° 355° (N) 2,714 6.5 -35.4°
Sets 19:45:44 0° 3° (N) 3,672 7.2 -35.8°
